Location: *
(38.9800°N, 16.0500°E)
Time: 04:54:09
(UTC+00:00)

CENTAUR R/B - Pass Details

Date: 07 April 2020
Orbit: 761 x 1427 km, 63.5° (Epoch: 25 May)

Event Time Altitude Azimuth Distance (km) Brightness Sun altitude
Exits shadow 03:32:55 15° 263° (W) 2,275 3.8 -11.7°
Maximum altitude 03:37:12 31° 318° (NW) 1,651 3.5 -10.9°
Drops below altitude 10° 03:43:17 10° 20° (NNE) 2,977 5.6 -9.8°
Sets 03:46:34 0° 30° (NNE) 4,056 6.5 -9.2°
